• In Hungary
  • List of Countries
  • For 7 days
  • Water Temperature
  • Satellite Maps
  • Weather Map
  • News
  • Weather Widgets
  • user-avatar
    Login

    Hourly Weather Otmuchow

    Today, 12 December, Tuesday

    Time Temperature Precipitation Wind Pressure Humidity
    00:00 +9°C° 0 mm 8 mps 723 mmHg 79%
    01:00 +8°C° 0 mm 5 mps 724 mmHg 82%
    02:00 +8°C° 0 mm 5 mps 725 mmHg 83%
    03:00 +8°C° 0 mm 6 mps 725 mmHg 83%
    04:00 +8°C° 0 mm 6 mps 726 mmHg 84%
    05:00 +8°C° 0.1 mm 6 mps 727 mmHg 84%
    06:00 +7°C° 0.1 mm 6 mps 728 mmHg 83%
    07:00 +7°C° 0.1 mm 6 mps 729 mmHg 82%
    08:00 +7°C° 0 mm 6 mps 730 mmHg 78%
    09:00 +7°C° 0 mm 6 mps 730 mmHg 74%
    10:00 +6°C° 0 mm 7 mps 731 mmHg 69%
    11:00 +5°C° 0 mm 8 mps 732 mmHg 66%
    12:00 +5°C° 0 mm 8 mps 734 mmHg 63%
    13:00 +5°C° 0 mm 9 mps 735 mmHg 59%
    14:00 +4°C° 0 mm 8 mps 736 mmHg 61%
    15:00 +3°C° 0 mm 7 mps 737 mmHg 62%
    16:00 +3°C° 0 mm 7 mps 738 mmHg 63%
    17:00 +2°C° 0 mm 7 mps 738 mmHg 63%
    18:00 +2°C° 0 mm 7 mps 739 mmHg 64%
    19:00 +2°C° 0 mm 6 mps 740 mmHg 65%
    20:00 +1°C° 0 mm 6 mps 741 mmHg 66%
    21:00 +1°C° 0 mm 6 mps 741 mmHg 67%
    22:00 +1°C° 0 mm 5 mps 742 mmHg 69%
    23:00 0°C° 0 mm 5 mps 742 mmHg 70%

    Tomorrow, 13 December, Wednesday

    Time Temperature Precipitation Wind Pressure Humidity
    00:00 0°C° 0 mm 4 mps 743 mmHg 72%
    01:00 +1°C° 0 mm 3 mps 743 mmHg 74%
    02:00 +1°C° 0 mm 3 mps 743 mmHg 77%
    03:00 0°C° 0 mm 3 mps 744 mmHg 79%
    04:00 +1°C° 0 mm 2 mps 744 mmHg 81%
    05:00 +1°C° 0 mm 2 mps 744 mmHg 83%
    06:00 -1°C° 0 mm 2 mps 744 mmHg 84%
    07:00 -1°C° 0 mm 2 mps 744 mmHg 85%
    08:00 0°C° 0 mm 3 mps 744 mmHg 81%
    09:00 0°C° 0 mm 3 mps 745 mmHg 77%
    10:00 +1°C° 0 mm 3 mps 745 mmHg 72%
    11:00 +1°C° 0 mm 3 mps 744 mmHg 69%
    12:00 +1°C° 0 mm 4 mps 744 mmHg 65%
    13:00 +1°C° 0 mm 4 mps 743 mmHg 62%
    14:00 0°C° 0 mm 4 mps 742 mmHg 65%
    15:00 0°C° 0 mm 4 mps 742 mmHg 68%
    16:00 -1°C° 0 mm 4 mps 741 mmHg 71%
    17:00 -1°C° 0 mm 4 mps 741 mmHg 71%
    18:00 -1°C° 0 mm 5 mps 740 mmHg 70%
    19:00 -1°C° 0 mm 5 mps 740 mmHg 70%
    20:00 -2°C° 0 mm 6 mps 739 mmHg 68%
    21:00 -2°C° 0 mm 6 mps 738 mmHg 66%
    22:00 -1°C° 0 mm 7 mps 737 mmHg 64%
    23:00 -1°C° 0.1 mm 7 mps 736 mmHg 66%

    Day after tomorrow, 14 December, Thursday

    Time Temperature Precipitation Wind Pressure Humidity
    00:00 -1°C° 0.1 mm 7 mps 735 mmHg 68%
    01:00 0°C° 0.1 mm 7 mps 735 mmHg 69%
    02:00 0°C° 0.1 mm 7 mps 734 mmHg 68%
    03:00 0°C° 0.1 mm 7 mps 733 mmHg 67%
    04:00 0°C° 0.1 mm 7 mps 732 mmHg 66%
    05:00 0°C° 0.1 mm 8 mps 731 mmHg 69%
    06:00 +1°C° 0.1 mm 8 mps 731 mmHg 71%
    07:00 +1°C° 0.1 mm 8 mps 730 mmHg 73%
    08:00 +1°C° 0.2 mm 8 mps 731 mmHg 73%
    09:00 +2°C° 0.2 mm 8 mps 731 mmHg 73%
    10:00 +2°C° 0.2 mm 8 mps 731 mmHg 73%
    11:00 +2°C° 0.2 mm 8 mps 731 mmHg 71%
    12:00 +4°C° 0.2 mm 8 mps 731 mmHg 68%
    13:00 +4°C° 0.2 mm 7 mps 731 mmHg 66%
    14:00 +3°C° 0 mm 6 mps 732 mmHg 65%
    15:00 +2°C° 0 mm 5 mps 732 mmHg 63%
    16:00 +1°C° 0 mm 5 mps 732 mmHg 62%
    17:00 +1°C° 0 mm 5 mps 732 mmHg 63%
    18:00 +1°C° 0 mm 4 mps 732 mmHg 63%
    19:00 0°C° 0 mm 4 mps 732 mmHg 64%
    20:00 +1°C° 0 mm 5 mps 731 mmHg 68%
    21:00 +1°C° 0 mm 5 mps 730 mmHg 73%
    22:00 +1°C° 0 mm 5 mps 730 mmHg 77%
    23:00 +1°C° 0.6 mm 5 mps 729 mmHg 79%

    15 December, Friday

    Time Temperature Precipitation Wind Pressure Humidity
    00:00 +2°C° 0.6 mm 6 mps 727 mmHg 81%
    01:00 +2°C° 0.6 mm 6 mps 726 mmHg 83%
    02:00 +2°C° 0.6 mm 7 mps 726 mmHg 82%
    03:00 +2°C° 0.6 mm 8 mps 726 mmHg 81%
    04:00 +2°C° 0.6 mm 9 mps 726 mmHg 80%
    05:00 +1°C° 0.1 mm 8 mps 727 mmHg 77%
    06:00 0°C° 0.1 mm 8 mps 727 mmHg 74%
    07:00 -1°C° 0.1 mm 8 mps 728 mmHg 71%
    08:00 0°C° 0 mm 8 mps 729 mmHg 71%
    09:00 0°C° 0 mm 8 mps 729 mmHg 71%
    10:00 0°C° 0 mm 8 mps 730 mmHg 71%
    11:00 0°C° 0 mm 7 mps 730 mmHg 70%
    12:00 +2°C° 0 mm 6 mps 730 mmHg 70%
    13:00 +2°C° 0 mm 5 mps 731 mmHg 69%
    14:00 +1°C° 0 mm 4 mps 731 mmHg 72%
    15:00 +1°C° 0 mm 4 mps 731 mmHg 76%
    16:00 +1°C° 0 mm 3 mps 731 mmHg 79%
    17:00 +1°C° 0 mm 3 mps 731 mmHg 80%
    18:00 +1°C° 0 mm 3 mps 731 mmHg 80%
    19:00 +1°C° 0 mm 3 mps 731 mmHg 81%
    20:00 0°C° 0 mm 3 mps 731 mmHg 82%
    21:00 0°C° 0 mm 3 mps 731 mmHg 83%
    22:00 0°C° 0 mm 3 mps 731 mmHg 84%
    23:00 0°C° 0 mm 3 mps 731 mmHg 83%

    16 December, Saturday

    Time Temperature Precipitation Wind Pressure Humidity
    00:00 0°C° 0 mm 3 mps 731 mmHg 83%
    01:00 0°C° 0 mm 3 mps 731 mmHg 83%
    02:00 0°C° 0 mm 3 mps 731 mmHg 83%
    03:00 0°C° 0 mm 3 mps 731 mmHg 83%
    04:00 +1°C° 0 mm 3 mps 732 mmHg 84%
    05:00 0°C° 0.1 mm 3 mps 732 mmHg 84%
    06:00 0°C° 0.1 mm 3 mps 733 mmHg 85%
    07:00 -1°C° 0.1 mm 4 mps 733 mmHg 85%
    08:00 -1°C° 0 mm 4 mps 734 mmHg 83%
    09:00 0°C° 0 mm 4 mps 734 mmHg 80%
    10:00 0°C° 0 mm 5 mps 735 mmHg 77%
    11:00 0°C° 0 mm 5 mps 735 mmHg 75%
    12:00 +1°C° 0 mm 5 mps 735 mmHg 74%
    13:00 +1°C° 0 mm 5 mps 736 mmHg 73%
    14:00 +1°C° 0.1 mm 5 mps 736 mmHg 76%
    15:00 0°C° 0.1 mm 5 mps 736 mmHg 79%
    16:00 0°C° 0.1 mm 4 mps 737 mmHg 82%
    17:00 -1°C° 0 mm 4 mps 737 mmHg 83%
    18:00 -1°C° 0 mm 4 mps 738 mmHg 84%
    19:00 -1°C° 0 mm 4 mps 738 mmHg 84%
    20:00 -1°C° 0 mm 4 mps 739 mmHg 84%
    21:00 -1°C° 0 mm 4 mps 739 mmHg 84%
    22:00 -1°C° 0 mm 4 mps 739 mmHg 84%
    23:00 -1°C° 0 mm 4 mps 739 mmHg 85%

    17 December, Sunday

    Time Temperature Precipitation Wind Pressure Humidity
    00:00 -1°C° 0 mm 4 mps 740 mmHg 85%
    01:00 -1°C° 0 mm 4 mps 740 mmHg 86%
    02:00 -1°C° 0 mm 4 mps 740 mmHg 86%
    03:00 -1°C° 0 mm 4 mps 740 mmHg 85%
    04:00 -1°C° 0 mm 4 mps 740 mmHg 85%
    05:00 -2°C° 0 mm 4 mps 741 mmHg 84%
    06:00 -2°C° 0 mm 4 mps 741 mmHg 84%
    07:00 -2°C° 0 mm 4 mps 741 mmHg 83%
    08:00 -1°C° 0 mm 5 mps 742 mmHg 81%
    09:00 -1°C° 0 mm 5 mps 742 mmHg 79%
    10:00 -1°C° 0 mm 5 mps 743 mmHg 77%
    11:00 0°C° 0.1 mm 5 mps 743 mmHg 76%
    12:00 0°C° 0.1 mm 5 mps 743 mmHg 75%
    13:00 -1°C° 0.1 mm 6 mps 743 mmHg 74%
    14:00 0°C° 0 mm 5 mps 744 mmHg 77%
    15:00 -1°C° 0 mm 4 mps 744 mmHg 79%
    16:00 -2°C° 0 mm 4 mps 745 mmHg 81%
    17:00 -1°C° 0 mm 3 mps 745 mmHg 83%
    18:00 -1°C° 0 mm 3 mps 746 mmHg 85%
    19:00 -1°C° 0 mm 3 mps 746 mmHg 87%
    20:00 -1°C° 0.1 mm 3 mps 747 mmHg 88%
    21:00 -1°C° 0.1 mm 3 mps 747 mmHg 88%
    22:00 -1°C° 0.1 mm 2 mps 748 mmHg 88%
    23:00 -1°C° 0 mm 2 mps 748 mmHg 89%
    Show more